Regional Weather Roundup
Issued by NWS

Home | Current Version | Previous Version | Graphics & Text | Print | Product List | Glossary On
Versions: 1 2 3 4 5 6 7 8 9 10 11 12 13 14 15 16 17 18 19 20 21 22 23 24 25 26 27 28 29 30 31 32 33 34 35 36 37 38 39 40 41 42 43 44 45 46 47 48 49 50
000
ASUS43 KOAX 091610
RWRNE

WEATHER ROUNDUP FOR NEBRASKA
NATIONAL WEATHER SERVICE OMAHA NE
1000 AM CST FRI DEC 09 2016

NOTES: SATELLITE DATA IS BEING USED TO AUGMENT CLOUD COVER ABOVE
       12000 FEET.
       "FAIR" INDICATES FEW OR NO CLOUDS BELOW 12,000 FEET WITH NO
       SIGNIFICANT WEATHER AND/OR OBSTRUCTIONS TO VISIBILITY.

  * THESE STATIONS DO NOT REPORT WEATHER SUCH AS RAIN...SNOW OR FOG.

NEZ001>004-019>022-054>056-091700-
NEBRASKA PANHANDLE

CITY           SKY/WX    TMP DP  RH WIND       PRES   REMARKS
SCOTTSBLUFF    CLOUDY    19   9  65 NE7       30.16R WCI  10
ALLIANCE       CLOUDY    14   6  70 SE5       30.17R WCI   6
CHADRON        CLOUDY     4  -2  76 N7        30.29R WCI  -8
KIMBALL        CLOUDY    16  10  76 CALM      30.10R
SIDNEY         CLOUDY    13   5  70 SW7       30.15R WCI   3
$$

NEZ057>060-069>072-079>082-091700-
SOUTHWEST NEBRASKA

CITY           SKY/WX    TMP DP  RH WIND       PRES   REMARKS
NORTH PLATTE   CLOUDY    17   6  62 S9        30.34R WCI   6
IMPERIAL       CLOUDY    17   9  70 S17G25    30.25F WCI   1
LEXINGTON      CLOUDY    18   9  68 SE14      30.41R WCI   4
MCCOOK         CLOUDY    19   9  65 S16       30.36R WCI   4
OGALLALA       CLOUDY    17  10  73 S10       30.27S WCI   4
$$

NEZ005>010-023>029-035>040-094-091700-
NORTH CENTRAL NEBRASKA

CITY           SKY/WX    TMP DP  RH WIND       PRES   REMARKS
VALENTINE      LGT SNOW  11   4  73 SE10      30.36S WCI  -3
AINSWORTH      CLOUDY    12   6  77 SE8       30.39R WCI   0
BROKEN BOW     CLOUDY    12   7  80 SE10      30.40S WCI  -1
O`NEILL        CLOUDY    10   6  83 SE9       30.48F WCI  -3
THEDFORD       CLOUDY    16   6  65 SE9G16    30.33R WCI   4
$$

NEZ041-046>049-061>064-073>077-083>087-091700-
SOUTH CENTRAL NEBRASKA

CITY           SKY/WX    TMP DP  RH WIND       PRES   REMARKS
GRAND ISLAND   CLOUDY    14   8  77 SE14      30.50F WCI  -1
AURORA         CLOUDY    14   8  76 SE12      30.53S WCI   0
HASTINGS       CLOUDY    16   9  74 SE12      30.50S WCI   3
HEBRON         CLOUDY    19  12  75 SE12      30.57S WCI   6
HOLDREGE       CLOUDY    17   9  72 SE10      30.42S WCI   4
KEARNEY *      CLOUDY    18   9  68 SE8       30.46S WCI   7
YORK           CLOUDY    14   9  79 SE8       30.56R WCI   3
$$

NEZ011>018-030>034-042>045-091700-
NORTHEAST NEBRASKA

CITY           SKY/WX    TMP DP  RH WIND       PRES   REMARKS
NORFOLK        CLOUDY     8   3  80 SE5       30.56R WCI   0
ALBION         CLOUDY    10   4  80 SE7       30.53F WCI  -2
BLAIR          MOSUNNY   12   7  81 CALM      30.60R
FREMONT        CLOUDY    10   5  80 CALM      30.62R
TEKAMAH        CLOUDY    10   4  76 CALM      30.65R
WAYNE          CLOUDY     7   2  80 CALM      30.58F
$$

NEZ050>053-065>068-078-088>093-091700-
SOUTHEAST NEBRASKA

CITY           SKY/WX    TMP DP  RH WIND       PRES   REMARKS
LINCOLN        CLOUDY    14   9  80 CALM      30.64R
OMAHA EPPLEY   PTSUNNY   12   6  77 CALM      30.65R
BEATRICE       CLOUDY    16  10  78 SE5       30.61R WCI   9
FALLS CITY     CLOUDY    15  11  83 CALM      30.65R
NEBRASKA CITY  CLOUDY    15   7  72 S3        30.63R
PLATTSMOUTH    PTSUNNY   14   7  73 S3        30.63S
$$

NEZ044-045-051>053-067-091700-
OMAHA AREA

CITY           SKY/WX    TMP DP  RH WIND       PRES   REMARKS
OMAHA EPPLEY   PTSUNNY   12   6  77 CALM      30.65R
BLAIR          MOSUNNY   12   7  81 CALM      30.60R
FREMONT        CLOUDY    10   5  80 CALM      30.62R
MILLARD        CLOUDY    16   8  73 CALM      30.64R
OFFUTT AFB     CLOUDY    13   9  83 CALM      30.64R
PLATTSMOUTH    PTSUNNY   14   7  73 S3        30.63S
WAHOO          CLOUDY    11   6  79 CALM      30.63R
$$



USA.gov is the U.S. government's official web portal to all federal, state and local government web resources and services.